Regional Weather Roundup
Issued by NWS

Home | Current Version | Previous Version | Graphics & Text | Print | Product List | Glossary On
Versions: 1 2 3 4 5 6 7 8 9 10 11 12 13 14 15 16 17 18 19 20 21 22 23 24 25 26 27 28 29 30 31 32 33 34 35 36 37 38 39 40 41 42 43 44 45 46 47 48 49 50
331
ASUS43 KLMK 270410
RWRKY
KENTUCKY REGIONAL WEATHER ROUNDUP
NATIONAL WEATHER SERVICE LOUISVILLE KY
1200 AM EDT FRI MAY 27 2016

NOTE "FAIR" INDICATES FEW OR NO CLOUDS BELOW 12,000 FEET
WITH NO SIGNIFICANT WEATHER AND/OR OBSTRUCTIONS TO VISIBILITY.

KYZ001>023-026-027-061>063-070>075-270500-
WESTERN AND SOUTH CENTRAL KENTUCKY

CITY           SKY/WX    TMP DP  RH WIND       PRES   REMARKS
PADUCAH        CLOUDY    69  63  81 VRB3      29.97F
HENDERSON      CLOUDY    64  61  88 CALM      29.96F
OWENSBORO      CLOUDY    67  65  93 E5        29.98S
HOPKINSVILLE   CLOUDY    68  66  94 S3        29.98F
BOWLING GREEN  CLOUDY    68  64  87 W3        30.00R
GLASGOW        CLOUDY    66  66 100 S3        30.00F
$$

KYZ024-025-028>034-038-045-046-053-270500-
NORTH CENTRAL KENTUCKY

CITY           SKY/WX    TMP DP  RH WIND       PRES   REMARKS
LOUISVILLE/SDF CLOUDY    68  63  84 S5        30.01S
LOUISVILLE/LOU PTCLDY    67  63  87 CALM      30.02S
FORT KNOX      CLOUDY    64  63  96 W2        30.01S
$$

KYZ035>037-039>044-047>052-055>060-089>105-270500-
NORTHEAST KENTUCKY

CITY           SKY/WX    TMP DP  RH WIND       PRES   REMARKS
LEXINGTON      PTCLDY    64  62  93 SE7       30.05S
COVINGTON      CLOUDY    66  63  90 SW7       30.02S
FRANKFORT      MOCLDY    65  62  90 SE6       30.02F
$$

KYZ054-064>069-076>088-106>120-270500-
SOUTHEAST KENTUCKY

CITY           SKY/WX    TMP DP  RH WIND       PRES   REMARKS
JACKSON        PTCLDY    67  61  81 CALM      30.09S
LONDON         CLOUDY    65  60  84 CALM      30.08R
SOMERSET       PTCLDY    61  61 100 CALM      30.07S
MIDDLESBORO    CLEAR     63  61  93 CALM      30.11R
MONTICELLO     CLOUDY    65  62  90 E7        30.07S
$$





USA.gov is the U.S. government's official web portal to all federal, state and local government web resources and services.